Walterboro, SC

5:33 AM EST on November 15, 2019 (GMT -0500)
Lowcountry Regional

Weather History for KRBW - August, 2019

Change the Weather History Date:

Thursday, August 22, 2019

  Actual Average Record
Temperature  
Mean Temperature 80 °F -  
Max Temperature 87 °F 89 °F 100 °F (2014)
Min Temperature 73 °F 69 °F 69 °F (2012)
Cooling Degree Days 15    
Growing Degree Days 30 (Base 50)    
Moisture  
Dew Point 74 °F    
Average Humidity 89    
Maximum Humidity 100    
Minimum Humidity 62    
Precipitation  
Precipitation 0.00 in - - ()
Sea Level Pressure  
Sea Level Pressure 30.07 in    
Wind  
Wind Speed 3 mph (SSW)    
Max Wind Speed 13 mph    
Max Gust Speed 30 mph    
Visibility 10 miles    
Events Rain , Thunderstorm    
Averages and records for this station are not official NWS values.
T = Trace of Precipitation, MM = Missing Value Source: NWS Daily Summary

Daily Weather History Graph

Daily Weather History Graph

Search for Another Location

Airport or City:

Astronomy

Aug. 22, 2019 Rise Set
Actual Time 6:50 AM EDT 8:00 PM EDT
Civil Twilight 6:24 AM EDT 8:25 PM EDT
Nautical Twilight 5:54 AM EDT 8:56 PM EDT
Astronomical Twilight 5:22 AM EDT 9:27 PM EDT
Moon No Moon Rise 1:03 PM EDT (8/22)
Length of Visible Light 14h 01m
Length of Day
13h 09m
Waning Gibbous, 60% of the Moon is Illuminated
Aug 22
Waning Gibbous
Aug 23
Last Quarter
Aug 30
New
Sep 5
First Quarter
Sep 14
Full

Hourly Weather History & Observations

Time (EDT) Temp. Heat Index Dew Point Humidity Pressure Visibility Wind Dir Wind Speed Gust Speed Precip Events Conditions
12:15 AM 73.4 °F - 71.6 °F 94% 30.10 in 10.0 mi Calm Calm - N/A   Clear
12:35 AM 73.4 °F - 73.4 °F 100% 30.10 in 10.0 mi Calm Calm - N/A   Clear
12:55 AM 73.4 °F - 73.4 °F 100% 30.10 in 10.0 mi Calm Calm - N/A   Clear
1:15 AM 73.4 °F - 73.4 °F 100% 30.09 in 10.0 mi SSW 3.5 mph - N/A   Clear
1:35 AM 73.4 °F - 73.4 °F 100% 30.09 in 10.0 mi SSW 4.6 mph - N/A   Clear
1:55 AM 75.2 °F - 73.4 °F 94% 30.08 in 10.0 mi Calm Calm - N/A   Clear
2:35 AM 73.4 °F - 73.4 °F 100% 30.08 in 10.0 mi Calm Calm - N/A   Clear
2:55 AM 73.4 °F - 73.4 °F 100% 30.07 in 10.0 mi Calm Calm - N/A   Clear
3:15 AM 73.4 °F - 73.4 °F 100% 30.07 in 10.0 mi Calm Calm - N/A   Clear
3:35 AM 73.4 °F - 73.4 °F 100% 30.06 in 10.0 mi SW 3.5 mph - N/A   Clear
3:55 AM 73.4 °F - 73.4 °F 100% 30.05 in 10.0 mi WSW 5.8 mph - N/A   Clear
4:15 AM 73.4 °F - 73.4 °F 100% 30.05 in 10.0 mi WSW 5.8 mph - N/A   Clear
4:35 AM 73.4 °F - 73.4 °F 100% 30.05 in 10.0 mi WSW 4.6 mph - N/A   Clear
4:55 AM 73.4 °F - 73.4 °F 100% 30.05 in 10.0 mi WSW 3.5 mph - N/A   Clear
5:15 AM 73.4 °F - 73.4 °F 100% 30.05 in 10.0 mi Calm Calm - N/A   Clear
5:35 AM 73.4 °F - 73.4 °F 100% 30.06 in 10.0 mi West 3.5 mph - N/A   Clear
5:55 AM 73.4 °F - 73.4 °F 100% 30.06 in 10.0 mi Calm Calm - N/A   Clear
6:15 AM 73.4 °F - 73.4 °F 100% 30.07 in 10.0 mi Calm Calm - N/A   Clear
6:35 AM 73.4 °F - 73.4 °F 100% 30.08 in 10.0 mi Calm Calm - N/A   Clear
6:55 AM 73.4 °F - 73.4 °F 100% 30.08 in 10.0 mi SW 3.5 mph - N/A   Clear
7:15 AM 73.4 °F - 73.4 °F 100% 30.09 in 10.0 mi Calm Calm - N/A   Clear
7:35 AM 73.4 °F - 73.4 °F 100% 30.10 in 10.0 mi Calm Calm - N/A   Clear
7:55 AM 75.2 °F - 73.4 °F 94% 30.10 in 10.0 mi WSW 3.5 mph - N/A   Clear
8:15 AM 77.0 °F - 73.4 °F 89% 30.11 in 10.0 mi SW 6.9 mph - N/A   Clear
8:35 AM 77.0 °F - 73.4 °F 89% 30.11 in 10.0 mi SW 5.8 mph - N/A   Clear
8:55 AM 77.0 °F - 73.4 °F 89% 30.11 in 10.0 mi SW 5.8 mph - N/A   Clear
9:15 AM 80.6 °F 86.2 °F 75.2 °F 84% 30.11 in 10.0 mi WSW 9.2 mph - N/A   Clear
9:35 AM 80.6 °F 86.2 °F 75.2 °F 84% 30.11 in 10.0 mi SSW 10.4 mph - N/A   Clear
9:55 AM 82.4 °F 88.2 °F 73.4 °F 74% 30.11 in 10.0 mi SW 9.2 mph - N/A   Clear
10:15 AM 84.2 °F 92.3 °F 75.2 °F 74% 30.11 in 10.0 mi SSW 9.2 mph - N/A   Scattered Clouds
10:35 AM 84.2 °F 92.3 °F 75.2 °F 74% 30.11 in 10.0 mi SSW 8.1 mph - N/A   Scattered Clouds
10:55 AM 86.0 °F 95.1 °F 75.2 °F 70% 30.11 in 10.0 mi West 8.1 mph - N/A   Scattered Clouds
11:15 AM 86.0 °F 93.4 °F 73.4 °F 66% 30.11 in 10.0 mi SW 4.6 mph - N/A   Scattered Clouds
11:35 AM 86.0 °F 93.4 °F 73.4 °F 66% 30.11 in 10.0 mi SW 4.6 mph - N/A   Scattered Clouds
11:55 AM 87.8 °F 95.6 °F 73.4 °F 62% 30.11 in 10.0 mi WSW 4.6 mph - N/A   Scattered Clouds
12:15 PM 86.0 °F 93.4 °F 73.4 °F 66% 30.10 in 10.0 mi WSW 3.5 mph - N/A   Mostly Cloudy
12:35 PM 87.8 °F 95.6 °F 73.4 °F 62% 30.09 in 10.0 mi WSW 9.2 mph 16.1 mph N/A Thunderstorm Thunderstorm
12:55 PM 78.8 °F - 69.8 °F 74% 30.09 in 10.0 mi NNW 12.7 mph 16.1 mph N/A Thunderstorm Thunderstorm
1:15 PM 80.6 °F 83.9 °F 69.8 °F 70% 30.08 in 5.0 mi NNW 6.9 mph 29.9 mph N/A Rain , Thunderstorm Heavy Thunderstorms and Rain
1:35 PM 77.0 °F - 73.4 °F 89% 30.08 in 10.0 mi NE 5.8 mph - N/A Rain , Thunderstorm Light Thunderstorms and Rain
1:55 PM 78.8 °F - 73.4 °F 83% 30.08 in 10.0 mi ESE 5.8 mph - N/A Thunderstorm Scattered Clouds
2:15 PM 78.8 °F - 75.2 °F 89% 30.08 in 7.0 mi WNW 6.9 mph - N/A Rain , Thunderstorm Heavy Thunderstorms and Rain
2:55 PM 73.4 °F - 69.8 °F 88% 30.07 in - Calm Calm - N/A Thunderstorm Thunderstorm
3:15 PM 77.0 °F - 73.4 °F 89% 30.05 in - Calm Calm - N/A   Unknown
3:35 PM 77.0 °F - 73.4 °F 89% 30.04 in - Calm Calm - N/A Thunderstorm Thunderstorm
3:55 PM 80.6 °F 86.2 °F 75.2 °F 84% 30.04 in - Calm Calm - N/A Thunderstorm Thunderstorm
4:15 PM 80.6 °F 85.4 °F 73.4 °F 79% 30.05 in - SE 5.8 mph - N/A Thunderstorm Thunderstorm
4:35 PM 80.6 °F 87.1 °F 77.0 °F 89% 30.03 in - SE 5.8 mph - N/A   Unknown
4:55 PM 80.6 °F 87.1 °F 77.0 °F 89% 30.04 in - SSE 6.9 mph - N/A   Unknown
5:15 PM 80.6 °F 86.2 °F 75.2 °F 84% 30.03 in - SSE 4.6 mph - N/A   Clear
5:35 PM 78.8 °F - 75.2 °F 89% 30.03 in - SSE 3.5 mph - N/A   Unknown
5:55 PM 80.6 °F 86.2 °F 75.2 °F 84% 30.03 in - South 3.5 mph - N/A   Clear
6:15 PM 80.6 °F 86.2 °F 75.2 °F 84% 30.03 in - SSE 5.8 mph - N/A   Clear
6:35 PM 78.8 °F - 77.0 °F 94% 30.02 in - SSE 3.5 mph - N/A   Unknown
6:55 PM 78.8 °F - 77.0 °F 94% 30.02 in - South 5.8 mph - N/A   Unknown
7:15 PM 78.8 °F - 73.4 °F 83% 30.02 in - South 4.6 mph - N/A   Clear
7:55 PM 78.8 °F - 73.4 °F 83% 30.02 in - SSE 3.5 mph - N/A   Unknown
8:15 PM 77.0 °F - 73.4 °F 89% 30.03 in - South 3.5 mph - N/A   Unknown
8:35 PM 77.0 °F - 73.4 °F 89% 30.03 in - South 4.6 mph - N/A   Unknown
8:55 PM 77.0 °F - 73.4 °F 89% 30.04 in - SSE 3.5 mph - N/A   Unknown
9:15 PM 77.0 °F - 73.4 °F 89% 30.04 in - SSE 4.6 mph - N/A   Unknown
9:35 PM 75.2 °F - 73.4 °F 94% 30.05 in - SSE 4.6 mph - N/A   Unknown
9:55 PM 77.0 °F - 73.4 °F 89% 30.05 in - South 4.6 mph - N/A   Unknown
10:15 PM 77.0 °F - 73.4 °F 89% 30.06 in - South 3.5 mph - N/A   Unknown
10:35 PM 75.2 °F - 73.4 °F 94% 30.06 in - Calm Calm - N/A   Unknown
10:55 PM 75.2 °F - 73.4 °F 94% 30.07 in - Calm Calm - N/A   Unknown
11:15 PM 75.2 °F - 73.4 °F 94% 30.07 in - Calm Calm - N/A   Unknown
11:35 PM 75.2 °F - 73.4 °F 94% 30.07 in - South 3.5 mph - N/A   Unknown
11:55 PM 75.2 °F - 73.4 °F 94% 30.07 in - South 3.5 mph - N/A   Unknown